TimeEDT,TemperatureF,Dew PointF,Humidity,Sea Level PressureIn,VisibilityMPH,Wind Direction,Wind SpeedMPH,Gust SpeedMPH,PrecipitationIn,Events,Conditions,WindDirDegrees,DateUTC
12:51 AM,64.0,46.9,54,30.07,9.0,Calm,Calm,-,N/A,,Clear,0,2014-04-03 04:51:00
1:51 AM,64.0,45.0,50,30.05,9.0,SSW,3.5,-,N/A,,Clear,200,2014-04-03 05:51:00
2:51 AM,63.0,44.1,50,30.04,9.0,WSW,3.5,-,N/A,,Clear,240,2014-04-03 06:51:00
3:51 AM,63.0,46.0,54,30.03,9.0,SW,5.8,-,N/A,,Clear,230,2014-04-03 07:51:00
4:51 AM,61.0,46.9,60,30.03,9.0,Calm,Calm,-,N/A,,Clear,0,2014-04-03 08:51:00
5:51 AM,60.1,48.0,64,30.04,9.0,West,3.5,-,N/A,,Clear,260,2014-04-03 09:51:00
6:51 AM,57.9,48.9,72,30.06,7.0,Calm,Calm,-,N/A,,Clear,0,2014-04-03 10:51:00
7:51 AM,59.0,50.0,72,30.08,6.0,Calm,Calm,-,N/A,,Haze,0,2014-04-03 11:51:00
8:51 AM,62.1,51.1,67,30.09,7.0,SW,3.5,-,N/A,,Clear,220,2014-04-03 12:51:00
9:51 AM,66.0,54.0,65,30.07,7.0,Variable,3.5,-,N/A,,Clear,0,2014-04-03 13:51:00
10:51 AM,73.0,57.0,57,30.06,8.0,Variable,4.6,-,N/A,,Clear,0,2014-04-03 14:51:00
11:51 AM,75.0,57.0,53,30.05,8.0,SW,11.5,16.1,N/A,,Clear,220,2014-04-03 15:51:00
12:51 PM,77.0,57.0,50,30.04,8.0,SW,10.4,18.4,N/A,,Clear,230,2014-04-03 16:51:00
1:51 PM,80.6,55.4,42,30.02,7.0,WSW,10.4,19.6,N/A,,Clear,240,2014-04-03 17:51:00
2:51 PM,82.0,55.9,41,29.98,8.0,SW,5.8,17.3,N/A,,Clear,230,2014-04-03 18:51:00
3:51 PM,82.9,55.9,39,29.95,8.0,WSW,6.9,-,N/A,,Clear,240,2014-04-03 19:51:00
4:51 PM,82.0,55.0,39,29.94,7.0,SW,11.5,19.6,N/A,,Clear,220,2014-04-03 20:51:00
5:51 PM,82.0,51.1,34,29.93,8.0,SW,8.1,-,N/A,,Clear,220,2014-04-03 21:51:00
6:51 PM,82.9,48.0,29,29.94,8.0,Variable,5.8,-,N/A,,Clear,0,2014-04-03 22:51:00
7:51 PM,78.1,46.9,33,29.94,8.0,Calm,Calm,-,N/A,,Clear,0,2014-04-03 23:51:00
8:51 PM,75.0,48.0,38,29.95,9.0,SSW,6.9,-,N/A,,Clear,200,2014-04-04 00:51:00
9:51 PM,73.0,48.0,41,29.96,9.0,SSW,5.8,-,N/A,,Clear,200,2014-04-04 01:51:00
10:51 PM,71.1,48.0,44,29.95,9.0,Variable,4.6,-,N/A,,Clear,0,2014-04-04 02:51:00
11:51 PM,68.0,48.9,50,29.96,9.0,SW,3.5,-,N/A,,Clear,220,2014-04-04 03:51:00